Printer-friendly version

IAU Minor Planet Center

Minor Planet Center

MPEC 2004-B39 : 2004 BN41

The following Minor Planet Electronic Circular may be linked-to from your own Web pages, but must not otherwise be redistributed electronically.


Read MPEC 2004-B38 Read MPEC 2004-B40


M.P.E.C. 2004-B39                                Issued 2004 Jan. 24, 11:51 UT

     The Minor Planet Electronic Circulars contain information on unusual
         minor planets and routine data on comets.  They are published
   on behalf of Commission 20 of the International Astronomical Union by the
          Minor Planet Center, Smithsonian Astrophysical Observatory,
                          Cambridge, MA 02138, U.S.A.

         Supported in part by the Steven and Michele Kirsch Foundation
             Prepared using the Tamkin Foundation Computer Network

                              MPC@CFA.HARVARD.EDU
          URL http://cfa-www.harvard.edu/iau/mpc.html  ISSN 1523-6714

                                   2004 BN41

Observations:
     K04B41N* C2004 01 23.39424 12 20 50.20 +06 55 24.8          19.8   EB039704
     K04B41N  C2004 01 23.40708 12 20 58.03 +06 53 02.1          19.7   EB039704
     K04B41N  C2004 01 23.41979 12 21 05.69 +06 50 42.1          19.1   EB039704
     K04B41N  C2004 01 23.43354 12 21 13.89 +06 48 10.0          19.8   EB039704
     K04B41N  C2004 01 23.44625 12 21 21.43 +06 45 49.6          19.5   EB039704
     K04B41N  C2004 01 24.04800 12 28 04.60 +05 03 00.5                 EB039246
     K04B41N  C2004 01 24.04830 12 28 04.74 +05 02 59.5                 EB039246
     K04B41N  C2004 01 24.04910 12 28 05.10 +05 02 49.5                 EB039246
     K04B41N  C2004 01 24.04991 12 28 05.65 +05 02 42.9                 EB039246
     K04B41N  C2004 01 24.05025 12 28 05.80 +05 02 40.9                 EB039246
     K04B41N  C2004 01 24.05131 12 28 06.24 +05 02 30.8                 EB039246
     K04B41N  C2004 01 24.05224 12 28 06.74 +05 02 20.4                 EB039246
     K04B41N 5C2004 01 24.43750 12 31 45.43 +04 07 16.0          19.5 R EB039673
     K04B41N 5C2004 01 24.44282 12 31 47.82 +04 06 30.7                 EB039673
     K04B41N 5C2004 01 24.45000 12 31 50.72 +04 05 35.6                 EB039673

Observer details:
246 Klet Observatory-KLENOT.  Observers J. Ticha, M. Tichy.  1.06-m KLENOT
    Telescope + CCD.
673 Table Mountain Observatory, Wrightwood.  Observer J. Young.  0.6-m
    reflector + CCD.
704 Lincoln Laboratory ETS, New Mexico.  Observers M. Blythe, F. Shelly,
    M. Bezpalko, R. Huber, L. Manguso, D. Torres, R. Kracke, M. McCleary,
    H. Stange, A. Milner.  Measurers J. Stuart, R. Sayer, J. Evans, J. Kommers.
    1.0-m f/2.15 reflector + CCD.

Orbital elements:
2004 BN41
Epoch 2003 Dec. 27.0 TT = JDT 2453000.5                 MPC
M 352.85181              (2000.0)            P               Q
n   0.33526098     Peri.  140.43360     -0.44289441     -0.89657006
a   2.0521734      Node   335.85477     +0.82098286     -0.40439462
e   0.5161453      Incl.    0.36164     +0.36032164     -0.18062979
P   2.94           H   25.4           G   0.15           U   8
Residuals in seconds of arc
040123 704  0.1+  0.1+    040124 246  0.2+  0.2-    040124 246  0.8-  0.5+
040123 704  0.0   0.2-    040124 246  0.0   1.6+    040124 246  0.5-  1.4-
040123 704  0.1-  0.4+    040124 246  0.8-  1.1-    040124 673  0.9-  0.7+
040123 704  0.2-  0.1+    040124 246  1.2+  0.2-    040124 673  0.8+  0.7-
040123 704  0.1+  0.3-    040124 246  0.8+  0.9+    040124 673 (1.4-  3.4+)

Ephemeris:
2004 BN41                a,e,i = 2.05, 0.52, 0                   q = 0.9929
Date    TT    R. A. (2000) Decl.     Delta      r     Elong.  Phase     V
2004 01 16    04 46.52   +41 15.1    0.013    0.993   136.8    42.6    17.7
2004 01 17    06 08.64   +45 07.4    0.011    0.993   147.7    31.9    17.0
2004 01 18    08 02.50   +44 05.0    0.0099   0.993   156.6    23.2    16.6
2004 01 19    09 46.01   +36 09.5    0.010    0.993   152.3    27.4    16.8
2004 01 20    10 53.00   +26 17.2    0.012    0.993   141.2    38.3    17.4
2004 01 21    11 33.23   +18 14.9    0.015    0.994   132.1    47.3    18.1
2004 01 22    11 58.52   +12 26.3    0.017    0.994   125.8    53.4    18.7
2004 01 23    12 15.46   +08 17.0    0.021    0.995   121.6    57.4    19.1
2004 01 24    12 27.44   +05 14.8    0.024    0.996   118.8    60.0    19.5
2004 01 25    12 36.27   +02 57.8    0.027    0.997   117.0    61.6    19.9
2004 01 26    12 43.01   +01 11.9    0.031    0.998   115.8    62.6    20.2

2004 01 31    13 01.08   -03 40.6    0.049    1.007   114.9    62.6    21.2
2004 02 05    13 08.12   -05 47.3    0.067    1.019   117.5    59.1    21.8
2004 02 10    13 10.67   -06 51.2    0.085    1.034   121.6    54.3    22.2
2004 02 15    13 10.59   -07 22.3    0.103    1.052   126.5    49.0    22.5
2004 02 20    13 08.62   -07 32.5    0.122    1.074   131.9    43.2    22.8
2004 02 25    13 05.25   -07 28.0    0.140    1.098   137.8    37.3    22.9

Kyle E. Smalley              (C) Copyright 2004 MPC           M.P.E.C. 2004-B39

Read MPEC 2004-B38 Read MPEC 2004-B40


Our Web policy. Index to the CBAT/MPC/ICQ pages.


Valid HTML 4.01!